Погода в Кутах

Украина / Ивано-Франковская область     48°15′44″N   25°10′46″E
темп.,
°C
ветер,
м/с
пор.,
м/с
влажн.,
%
обл.,
%
осадки,
мм/ч
давл.,
гПа
погр.,
м
27 января, чт
чт2723:00−4юз3491100 0.3 1024109
02:00−4юз3593100 0.8 1023163
05:00−5юз358896 0.1 102389
08:00−6юз348597 0.1 102373
11:00−1юз347372 0.0 1022223
14:00+2юз257480 0.0 1019384
17:00−1ююз2188100 0.0 101725
20:00−3ююз338789 0.0 101653
28 января, пт
пт2823:00−4юз3386100 0.0 101656
02:00−2юз2384100 0.0 101463
05:00−2юз3584100 0.0 1013102
08:00−3юз3683100 0.0 1013120
11:00+1зюз411685 0.0 1012710
14:00+3з6146299 0.0 10111278
17:00+2зсз61367100 0.0 1013853
20:00−1сз6159288 0.2 10161242
29 января, сб
сб2923:00−2зсз5138355 0.1 1018895
02:00−3сз5138889 0.2 1020883
05:00−3сз6128491 0.3 10221121
08:00−5зсз4118212 0.3 1024606
11:00−2сз49695 0.0 10241066
14:000сз47555 0.0 10231132
17:00−4ююз2185100 0.0 102212
20:00−6ююз3684100 0.0 1021111
30 января, вс
вс3023:00−5ююз357785 0.0 1018133
02:00−3юз377298 0.0 1013223
05:00−2ююз2480100 0.1 1010116
08:00−1юз5146746 0.2 1007386
11:00+3зюз715620 0.0 1005960
14:00+3з918653 0.0 10041530
17:00+2з9215898 3.3 10031647
20:00+2з92268100 3.3 10031908
31 января, пн
пн3123:00+1зсз82067100 0.0 10051954
02:00+1зсз102065100 0.1 10081789
05:00−1зсз8196337 0.0 10101603
08:00−2зсз8186895 0.1 10131720
11:00−1зсз715620 0.1 10162071
14:000зсз7135428 0.1 10161838
17:00−3зсз36655 0.0 1017129
20:00−5юз228391 0.0 101842